sat.trackr.live / text

‹ back to catalog

STARLINK-30146

NORAD 57442 · 2023-105N

PAYLOAD ACTIVE UNKNOWN

§ Identity

Operator
Country
US
Launch date
2023-07-24
Launch site
AFETR
Launch vehicle
Mass (kg)
RCS (m²)

Purposes: comms

External: N2YO · Heavens-Above · Gunter

§ Orbital elements

Epoch: 2026-09-20T10:23:03.499296Z

Period
94.27 min
Inclination
43.0010°
Eccentricity
0.0001154
Mean motion
15.27577221 rev/d
Perigee alt
482.3 km
Apogee alt
483.8 km
Semi-major
6,861.2 km
B*
-1.1899e-5
RAAN
240.1798°
Arg perigee
269.9156°
Mean anomaly
90.1563°
Rev number
17,542

§ Raw data

STARLINK-301461 57442U 23105N   26263.43267939 -.00000589  00000+0 -11899-4 0  99902 57442  43.0010 240.1798 0001154 269.9156  90.1563 15.27577221175424

JSON: /api/v1/satellites/57442 · /tle

For live sub-satellite position, see the globe view (requires WebGL).

§ Visibility from observer

Set your observer location to see the next 7 days of passes ≥ 10°. The values pass through the URL so the page stays shareable.

No JS? Fill the form by hand. The geolocation button needs JavaScript.